DW3200 Weather Reports


time (UTC)temp
F
wind
direction
speed
knots
gust
knots
rain 1hr
in
rain 24hr
in
rain mn
in
humidity
%
barometer
mb
20260904053025 48 288 6.1 0.0 0.00 0.00 0.25 92 1008.2
20260904051522 50 296 2.6 0.0 0.00 0.00 0.24 92 1008.1
20260904050001 51 304 2.6 0.0 0.00 0.00 0.22 92 1007.9
20260904044602 51 360 3.5 0.0 0.00 0.00 0.21 92 1007.9
20260904043042 51 14 0.0 0.0 0.00 0.00 0.20 92 1008.4
20260904041543 51 14 0.0 0.0 0.00 0.00 0.20 91 1008.5
20260904040037 52 14 0.0 0.0 0.00 0.00 0.18 91 1008.6
20260904034523 52 14 0.0 0.0 0.00 0.00 0.18 91 1008.3
20260904033005 52 14 0.0 0.0 0.00 0.00 0.17 91 1008.6
20260904031504 52 14 0.9 0.0 0.00 0.00 0.16 90 1008.2
20260904030047 53 14 0.0 0.0 0.00 0.00 0.15 90 1008.2
20260904024551 52 14 0.0 0.0 0.00 0.00 0.14 89 1007.9
20260904023036 53 14 0.9 0.0 0.00 0.00 0.14 88 1008.3
20260904021541 54 15 0.0 0.0 0.00 0.00 0.13 87 1007.6
20260904020010 54 14 0.0 0.0 0.00 0.00 0.13 86 1007.8
20260904014509 54 14 0.0 0.0 0.00 0.00 0.12 85 1007.8
20260904013110 56 15 0.0 0.0 0.00 0.00 0.12 84 1008.2
20260904011550 56 14 0.0 0.0 0.00 0.00 0.11 83 1008.3
20260904010034 57 15 0.0 0.0 0.00 0.00 0.11 81 1008.4
20260904004532 57 14 0.0 0.0 0.00 0.00 0.10 79 1008.2
20260904003024 58 14 0.0 0.0 0.00 0.00 0.10 78 1008.5
20260904001522 58 15 0.0 0.0 0.00 0.00 0.10 78 1008.5
20260904000019 58 15 0.0 0.0 0.00 0.00 0.10 77 1008.2
20260903234517 58 14 0.0 0.0 0.00 0.00 0.10 75 1008.8
20260903233030 58 15 0.9 0.0 0.00 0.00 0.10 74 1008.7
20260903231517 58 13 0.9 0.0 0.00 0.00 0.10 73 1008.8
20260903230012 59 13 0.0 0.0 0.00 0.00 0.10 72 1009.1
20260903224522 59 13 0.9 0.0 0.00 0.00 0.10 71 1009.2
20260903223053 59 11 0.9 0.0 0.00 0.00 0.10 72 1009.3
20260903221551 59 9 0.0 0.0 0.00 0.00 0.10 71 1009.4
20260903220031 58 9 0.9 0.0 0.00 0.00 0.10 73 1010.0
20260903214534 58 5 0.9 0.0 0.00 0.00 0.10 74 1010.1
20260903213011 58 360 0.9 0.0 0.00 0.00 0.10 77 1010.1
20260903211510 58 322 0.9 0.0 0.00 0.00 0.10 77 1010.0
20260903210052 56 301 0.9 0.0 0.00 0.00 0.10 82 1010.0
20260903204548 56 300 0.9 0.0 0.00 0.00 0.10 84 1010.3
20260903203029 55 299 0.0 0.0 0.00 0.00 0.10 85 1010.3
20260903201529 55 299 0.9 0.0 0.00 0.00 0.10 87 1010.4
20260903200010 55 298 0.0 0.0 0.00 0.00 0.10 89 1010.4
20260903194508 54 298 0.0 0.0 0.00 0.00 0.10 90 1010.5
20260903193108 53 298 0.9 0.0 0.00 0.00 0.10 91 1010.7
20260903191549 53 293 0.0 0.0 0.00 0.00 0.10 92 1010.7
20260903190047 53 293 2.6 0.0 0.00 0.00 0.10 92 1010.9
20260903184528 53 293 0.9 0.0 0.00 0.00 0.10 92 1011.0
20260903183031 53 293 0.0 0.0 0.00 0.00 0.10 93 1011.1
20260903181516 52 293 0.0 0.0 0.00 0.00 0.10 93 1011.0
20260903180024 52 293 0.0 0.0 0.00 0.00 0.10 94 1011.0
20260903174513 53 293 0.9 0.0 0.00 0.00 0.10 94 1010.9
20260903173012 52 292 0.0 0.0 0.00 0.00 0.10 94 1010.7
20260903171509 52 292 0.0 0.0 0.00 0.00 0.10 94 1010.8
20260903170012 51 292 0.0 0.0 0.00 0.00 0.09 94 1010.8
20260903164507 51 292 0.0 0.0 0.00 0.00 0.08 94 1010.7
20260903163007 51 292 0.9 0.0 0.00 0.00 0.08 94 1010.8
20260903161549 51 292 0.9 0.0 0.00 0.00 0.07 94 1010.6
20260903160049 51 292 0.0 0.0 0.00 0.00 0.06 94 1010.6
20260903154528 51 292 0.0 0.0 0.00 0.00 0.05 93 1010.4
20260903153026 51 292 0.0 0.0 0.00 0.00 0.05 94 1010.4
20260903151510 51 292 0.0 0.0 0.00 0.00 0.04 94 1010.3
20260903150014 51 292 0.0 0.0 0.00 0.00 0.03 93 1010.4
20260903144552 50 292 0.0 0.0 0.00 0.00 0.02 94 1010.2
20260903143048 50 292 0.0 0.0 0.00 0.00 0.01 93 1010.1
20260903141534 51 292 0.0 0.0 0.00 0.00 0.00 93 1009.9
20260903140033 50 292 0.0 0.0 0.00 0.00 0.57 93 1009.7
20260903134532 50 292 0.0 0.0 0.00 0.00 0.56 93 1009.5
20260903133035 50 292 0.0 0.0 0.00 0.00 0.56 93 1009.5
20260903131531 50 292 0.0 0.0 0.00 0.00 0.54 93 1009.4
20260903130031 50 292 0.0 0.0 0.00 0.00 0.53 93 1009.1
20260903124530 50 292 0.0 0.0 0.00 0.00 0.52 93 1009.1
20260903123030 50 292 0.0 0.0 0.00 0.00 0.51 92 1008.9
20260903121522 51 292 0.0 0.0 0.00 0.00 0.50 92 1009.0
20260903120011 51 292 0.0 0.0 0.00 0.00 0.49 92 1008.8
20260903114602 51 292 0.0 0.0 0.00 0.00 0.48 92 1008.7
20260903113051 51 292 0.0 0.0 0.00 0.00 0.47 92 1008.8
20260903111534 51 292 0.0 0.0 0.00 0.00 0.47 92 1008.8
20260903110033 51 292 0.0 0.0 0.00 0.00 0.46 92 1008.7
20260903104514 51 292 0.0 0.0 0.00 0.00 0.45 91 1008.7
20260903103018 51 292 0.0 0.0 0.00 0.00 0.45 91 1008.4
20260903101507 51 292 0.9 0.0 0.00 0.00 0.45 91 1008.4
20260903100001 52 292 1.7 0.0 0.00 0.00 0.44 90 1008.3
20260903094545 52 292 2.6 0.0 0.00 0.00 0.44 89 1008.2
20260903093044 52 292 1.7 0.0 0.00 0.00 0.43 88 1008.3
20260903091526 53 292 0.0 0.0 0.00 0.00 0.43 88 1008.3
20260903090026 53 292 0.0 0.0 0.00 0.00 0.43 87 1008.3
20260903084508 53 292 0.0 0.0 0.00 0.00 0.42 86 1008.0
20260903083010 53 292 0.0 0.0 0.00 0.00 0.42 86 1007.9
20260903081550 53 292 0.0 0.0 0.00 0.00 0.42 85 1008.0
20260903080115 54 292 0.0 0.0 0.00 0.00 0.42 84 1008.0
20260903074531 54 292 0.0 0.0 0.00 0.00 0.42 84 1008.1
20260903073034 54 292 0.0 0.0 0.00 0.00 0.42 83 1008.3
20260903071520 54 292 0.0 0.0 0.00 0.00 0.42 83 1008.0
20260903070017 54 292 0.0 0.0 0.00 0.00 0.42 83 1007.7
20260903064555 55 292 0.0 0.0 0.00 0.00 0.42 82 1007.6
20260903063105 55 292 0.9 0.0 0.00 0.00 0.42 82 1007.7
20260903061555 55 292 0.0 0.0 0.00 0.00 0.42 81 1007.7
20260903060038 55 292 1.7 0.0 0.00 0.00 0.42 81 1007.8
20260903054520 56 298 4.3 0.0 0.00 0.00 0.42 81 1007.5